Location: Halle (Saale)
(51.4970°N, 11.9688°E)
Time: 15:14:35
(UTC+02:00)

ISS - Visible Passes

Search period start: 02 April 2020 00:00
Search period end: 12 April 2020 00:00
Orbit: 416 x 423 km, 51.6° (Epoch: 02 April)

Date Brightness Start Highest point End Pass type
(mag) Time Alt. Az. Time Alt. Az. Time Alt. Az.
02 Apr -1.5 21:49:37 10° WSW 21:51:42 16° SW 21:52:19 15° SSW visible
03 Apr -1.8 21:01:48 10° W 21:04:28 22° SW 21:06:56 11° SSE visible
05 Apr -0.9 21:05:19 10° SW 21:05:57 10° SW 21:06:34 10° SSW visible
